[[{"header":{"parameterUnit":"m.s-1","parameterCategory":1,"la1":30.2991,"la2":30.254,"lo1":-89.0895,"lo2":-89.0444,"dy":0.0017,"dx":0.0017,"nx":28,"ny":28,"refTime":"2024-07-17T09:00:00:Z","depth":0,"parameterNumber":2,"parameterNumberName":"U-component_of_WINDS"},"data":[0,0,0,0,0,0,0,0,0,0,0,0,0,0,0,0,0,0,0,0,0,0,0,0,0,0,0,0,0,0,0,0,0,0,0,0,0,0,0,0,0,0,0,0,0,0,0,0,0,0,0,0,0,0,0,0,0,0,1.6489,1.649,0,1.659,1.6591,1.6592,1.6589,1.6588,1.6586,1.6585,1.6689,1.6693,1.6697,0,0,0,0,0,0,0,0,0,0,0,0,0,1.6291,1.6295,1.6489,1.649,1.6492,1.659,1.6591,1.6593,1.6589,1.6588,1.6586,1.6584,1.6687,1.6692,1.6697,0,0,0,0,0,0,0,0,0,0,0,0,0,1.6383,1.6296,1.6489,1.6502,1.6504,1.659,1.6591,1.6593,1.659,1.6587,1.6585,1.6583,1.6686,1.6692,1.6698,1.6777,0,0,1.6716,1.6719,0,0,0,0,0,0,0,0,1.6378,1.6391,1.6498,1.6501,1.6503,1.6575,1.656,1.6655,1.659,1.6557,1.6585,1.6582,1.6652,1.6661,1.6685,1.6782,1.6787,1.6717,1.6721,1.6723,1.6725,0,0,0,0,0,0,0,1.6372,1.6386,1.6529,1.65,1.6503,1.6502,1.6513,1.6578,1.6615,1.656,1.656,1.6572,1.6653,1.6679,1.6687,1.6788,1.6717,1.6722,1.6726,1.6728,1.6954,1.6956,0,0,0,0,0,0,1.6363,1.6381,1.6526,1.6532,1.6434,1.6507,1.6519,1.6554,1.6615,1.6622,1.6573,1.6571,1.667,1.668,1.6691,1.6786,1.6723,1.6729,1.6732,1.6951,1.6954,1.6957,0,0,0,0,0,0,1.6359,1.6376,1.6522,1.6457,1.6475,1.6513,1.6552,1.6557,1.6583,1.6625,1.6632,1.6593,1.6668,1.6682,1.6755,1.679,1.6732,1.6737,1.6949,1.6952,1.6955,1.6979,0,0,0,0,0,0,1.6353,1.6374,1.6405,1.6457,1.6479,1.6585,1.6554,1.6561,1.6593,1.6591,1.6645,1.6652,1.6668,1.6746,1.6761,1.6797,1.6742,1.6946,1.695,1.6954,1.6975,1.6983,1.6989,0,0,0,0,0,1.6346,1.6409,1.6407,1.6425,1.6518,1.6587,1.6599,1.6616,1.6596,1.6627,1.6654,1.665,1.6784,1.6754,1.6771,1.6809,1.6944,1.6949,1.6954,1.6972,1.6981,1.6989,0,0,0,0,0,0,1.636,1.6416,1.6415,1.6496,1.6537,1.6586,1.6626,1.6626,1.6673,1.667,1.6689,1.6701,1.6774,1.6799,1.6764,1.6888,1.6861,1.687,1.6869,1.6878,1.6885,1.6876,1.6747,0,0,0,0,0,1.6373,1.6424,1.647,1.6537,1.6558,1.6588,1.6619,1.6629,1.6672,1.6689,1.6721,1.6763,1.6814,1.6848,1.6898,1.6979,1.6989,1.7013,1.702,1.7026,1.7033,1.7075,1.7086,1.6974,1.6974,1.6974,0,0,1.64,1.6436,1.6468,1.6541,1.6574,1.6626,1.6603,1.666,1.6698,1.6698,1.6768,1.6793,1.6841,1.6918,1.6953,1.6941,1.7066,1.7033,1.7037,1.7041,1.7082,1.7092,1.7102,1.6977,1.6977,1.6976,0,0,1.6474,1.6508,1.6567,1.66,1.6649,1.6669,1.6683,1.6732,1.6748,1.6819,1.6819,1.6865,1.6954,1.6987,1.7016,1.7101,1.7098,1.7117,1.7153,1.7194,1.7203,1.7211,1.7239,1.7249,1.7124,1.7124,1.7124,0,1.6501,1.658,1.6597,1.6653,1.6685,1.6686,1.6745,1.6776,1.6839,1.686,1.6846,1.6955,1.6988,1.7071,1.7092,1.7116,1.7131,1.711,1.72,1.7208,1.7216,1.7243,1.7254,1.7126,1.7125,1.7125,1.7125,0,1.6609,1.6664,1.6705,1.6765,1.6801,1.6858,1.6883,1.6918,1.6924,1.6945,1.7016,1.7055,1.7111,1.7132,1.7139,1.7216,1.7206,1.7196,1.7169,1.7228,1.7254,1.7264,1.7128,1.7128,1.7127,1.7127,0,0,1.6697,1.6764,1.6779,1.6805,1.6858,1.69,1.6957,1.7012,1.704,1.7083,1.713,1.7204,1.7194,1.7226,1.7237,1.7273,1.7335,1.7258,1.7259,1.7269,1.742,1.7426,1.7438,1.7334,1.7337,1.7338,1.7415,0,1.6775,1.6875,1.6891,1.6979,1.7028,1.7029,1.7078,1.7116,1.7137,1.7181,1.7204,1.7255,1.7239,1.7258,1.7295,1.732,1.7366,1.7315,1.7377,1.7379,1.7363,1.7452,1.7459,1.753,1.7426,1.7427,1.7429,0,1.6881,1.6925,1.7018,1.7062,1.7084,1.7127,1.7177,1.722,1.7263,1.7275,1.731,1.7316,1.7373,1.7345,1.7423,1.7389,1.7415,1.7431,1.7434,1.7439,1.7406,1.7458,1.7553,1.7563,1.7445,1.7444,1.7443,0,1.6932,1.7016,1.7081,1.7104,1.7158,1.7188,1.7213,1.7253,1.7284,1.7328,1.7348,1.7398,1.7425,1.7464,1.7483,1.746,1.7559,1.7533,1.757,1.7569,1.759,1.7588,1.7689,1.761,1.761,1.7609,1.7609,0,1.7018,1.7073,1.7104,1.7144,1.7206,1.7224,1.7285,1.7308,1.7343,1.7387,1.7392,1.7433,1.7456,1.75,1.7516,1.7577,1.759,1.7601,1.7604,1.7599,1.7598,1.7616,1.7611,1.7612,1.7612,1.7611,1.7611,0,1.7085,1.7109,1.7179,1.7225,1.7237,1.7281,1.7319,1.7357,1.7377,1.7433,1.7447,1.7478,1.753,1.7553,1.7618,1.7627,1.7697,1.7698,1.7682,1.7683,1.7718,1.7714,1.7833,1.7849,1.7761,1.7762,1.7762,0,1.7138,1.718,1.7229,1.7259,1.7283,1.7331,1.7362,1.7381,1.7413,1.7463,1.7495,1.7547,1.7589,1.7672,1.77,1.7749,1.775,1.7788,1.7757,1.775,1.7748,1.7744,1.7747,1.7793,1.7794,1.7795,1.7795,0,1.7227,1.7235,1.728,1.7328,1.7365,1.7404,1.7442,1.7466,1.7491,1.7526,1.7579,1.7612,1.7676,1.7727,1.7777,1.7802,1.7802,1.7805,1.7816,1.7811,1.7799,1.7804,1.7696,1.7802,1.7801,1.7801,1.78,1.78,1.7287,1.7324,1.7364,1.7412,1.7443,1.7478,1.7515,1.7539,1.7583,1.7637,1.7645,1.7701,1.774,1.7808,1.7834,1.7877,1.7868,1.7884,1.7888,1.7891,1.7892,1.7794,1.7887,1.7886,1.7886,1.7886,1.7886,0,1.7375,1.74,1.7445,1.7497,1.7535,1.7532,1.7573,1.7605,1.7654,1.769,1.7731,1.7791,1.7839,1.7871,1.792,1.7949,1.795,1.7961,1.7958,1.7963,1.7899,1.7883,1.7959,1.7959,1.7959,1.7959,1.7959,1.7959,1.7425,1.7486,1.7499,1.7575,1.76,1.7654,1.7677,1.7709,1.7738,1.7804,1.7844,1.7864,1.7898,1.7949,1.7994,1.8002,1.8019,1.803,1.8037,1.7976,1.7968,1.7961,1.7946,1.8034,1.8034,1.8097,1.8098,1.8098]},{"header":{"parameterUnit":"m.s-1","parameterCategory":1,"la1":30.2991,"la2":30.254,"lo1":-89.0895,"lo2":-89.0444,"dy":0.0017,"dx":0.0017,"nx":28,"ny":28,"refTime":"2024-07-17T09:00:00:Z","depth":0,"parameterNumber":3,"parameterNumberName":"V-component_of_WINDS"},"data":[0,0,0,0,0,0,0,0,0,0,0,0,0,0,0,0,0,0,0,0,0,0,0,0,0,0,0,0,0,0,0,0,0,0,0,0,0,0,0,0,0,0,0,0,0,0,0,0,0,0,0,0,0,0,0,0,0,0,0.1052,0.1051,0,0.102,0.102,0.1019,0.0989,0.0989,0.0988,0.0988,0.0958,0.0957,0.0957,0,0,0,0,0,0,0,0,0,0,0,0,0,0.1087,0.1087,0.1052,0.1051,0.1051,0.102,0.102,0.1019,0.0989,0.0989,0.0988,0.0988,0.0958,0.0957,0.0957,0,0,0,0,0,0,0,0,0,0,0,0,0,0.1066,0.1087,0.1052,0.1032,0.103,0.102,0.102,0.1019,0.0989,0.0989,0.0988,0.0987,0.0958,0.0957,0.0957,0.0964,0,0,0.0955,0.0954,0,0,0,0,0,0,0,0,0.1067,0.1064,0.1035,0.1033,0.1031,0.1008,0.1021,0.1001,0.0989,0.1005,0.0988,0.0987,0.0975,0.0973,0.0968,0.0963,0.0962,0.0955,0.0954,0.0954,0.0954,0,0,0,0,0,0,0,0.1068,0.1066,0.1039,0.1035,0.1032,0.1025,0.1022,0.1017,0.0994,0.1003,0.1001,0.0998,0.0974,0.0969,0.0967,0.0961,0.0955,0.0954,0.0954,0.0953,0.096,0.0961,0,0,0,0,0,0,0.1073,0.1067,0.104,0.1038,0.1048,0.1025,0.1021,0.1016,0.0994,0.099,0.0998,0.0996,0.097,0.0968,0.0966,0.0974,0.0954,0.0953,0.0953,0.096,0.0961,0.0961,0,0,0,0,0,0,0.1074,0.1071,0.1042,0.1052,0.1048,0.1025,0.102,0.1016,0.1011,0.099,0.0985,0.0998,0.097,0.0967,0.0965,0.0972,0.0953,0.0952,0.0959,0.096,0.0961,0.0989,0,0,0,0,0,0,0.1075,0.1071,0.1074,0.1052,0.1047,0.1041,0.102,0.1015,0.101,0.1007,0.0988,0.0984,0.0969,0.0966,0.0964,0.0971,0.0952,0.0958,0.096,0.0961,0.0987,0.0991,0.0994,0,0,0,0,0,0.1076,0.1083,0.1074,0.1071,0.105,0.1041,0.1038,0.102,0.101,0.1013,0.0999,0.0985,0.0972,0.0966,0.0964,0.097,0.0958,0.0959,0.0961,0.0986,0.099,0.0994,0,0,0,0,0,0,0.1107,0.108,0.1069,0.107,0.1058,0.1036,0.1039,0.1025,0.1016,0.1014,0.0992,0.0988,0.0989,0.0979,0.0973,0.0977,0.0963,0.0964,0.0983,0.0987,0.099,0.0992,0.0951,0,0,0,0,0,0.1114,0.1108,0.1085,0.1088,0.1082,0.1061,0.1057,0.1044,0.1031,0.1026,0.1012,0.1,0.0993,0.0989,0.0982,0.0986,0.0981,0.0989,0.0992,0.0995,0.0996,0.0997,0.1,0.0965,0.0965,0.0965,0,0,0.1128,0.1113,0.1111,0.1094,0.1083,0.1078,0.1058,0.1053,0.105,0.1025,0.1022,0.1012,0.0997,0.0998,0.0997,0.099,0.1005,0.0996,0.0999,0.0999,0.0999,0.1002,0.1005,0.0966,0.0966,0.0966,0,0,0.1152,0.1139,0.114,0.1129,0.1112,0.1098,0.1099,0.1078,0.107,0.1066,0.1048,0.1043,0.1032,0.1022,0.1016,0.1035,0.1021,0.1033,0.105,0.1051,0.1054,0.1056,0.1063,0.1065,0.1034,0.1034,0.1034,0,0.1172,0.1163,0.1142,0.1139,0.1132,0.1109,0.1109,0.11,0.1082,0.1078,0.107,0.1055,0.1043,0.1041,0.1046,0.1041,0.1041,0.1035,0.1055,0.1057,0.1059,0.1065,0.1068,0.1036,0.1035,0.1035,0.1035,0,0.1189,0.1183,0.1185,0.1168,0.1161,0.116,0.1139,0.1135,0.1122,0.1109,0.1106,0.1091,0.108,0.1078,0.1066,0.1074,0.107,0.1059,0.1044,0.1064,0.1069,0.1072,0.1038,0.1037,0.1037,0.1036,0,0,0.1232,0.1202,0.1203,0.1194,0.1174,0.1169,0.1167,0.1155,0.1152,0.1141,0.1138,0.1129,0.1117,0.111,0.1097,0.1098,0.1113,0.1086,0.1085,0.1092,0.1122,0.1131,0.1134,0.1104,0.1105,0.1105,0.1123,0,0.1252,0.1246,0.1227,0.1226,0.1221,0.1198,0.1196,0.1183,0.1171,0.1165,0.1151,0.1145,0.113,0.1126,0.1126,0.1112,0.1119,0.111,0.1102,0.1102,0.1107,0.1137,0.1147,0.1165,0.1125,0.1125,0.1126,0,0.1275,0.1264,0.1263,0.1242,0.1239,0.1237,0.1225,0.1219,0.1204,0.1195,0.1187,0.1171,0.1168,0.1154,0.1149,0.1143,0.1138,0.1131,0.1131,0.113,0.1116,0.1137,0.117,0.1173,0.1129,0.1129,0.1128,0,0.1307,0.1292,0.1289,0.1282,0.1258,0.1257,0.1247,0.1232,0.1226,0.1215,0.1211,0.12,0.1194,0.1186,0.1168,0.116,0.1165,0.115,0.1158,0.1159,0.1161,0.1161,0.1194,0.1157,0.1157,0.1157,0.1157,0,0.1332,0.1333,0.1303,0.1301,0.1301,0.1279,0.1279,0.1267,0.1253,0.1249,0.1229,0.1226,0.1202,0.1196,0.1182,0.118,0.1177,0.117,0.1167,0.1172,0.1173,0.117,0.1168,0.1158,0.1158,0.1158,0.1158,0,0.1368,0.1348,0.1344,0.132,0.1314,0.1315,0.1295,0.1293,0.1279,0.1274,0.1272,0.125,0.1241,0.1222,0.121,0.12,0.1202,0.1195,0.1207,0.1205,0.1214,0.1213,0.1246,0.1249,0.121,0.1211,0.1211,0,0.1386,0.1385,0.1361,0.1357,0.1347,0.134,0.1333,0.1311,0.1305,0.1288,0.1288,0.1278,0.1269,0.1257,0.124,0.123,0.1223,0.1235,0.1222,0.1227,0.1224,0.1224,0.1224,0.1238,0.1239,0.1239,0.124,0,0.1419,0.1409,0.14,0.1387,0.1379,0.1369,0.1357,0.1354,0.1329,0.1324,0.1315,0.1308,0.1294,0.1284,0.1271,0.1261,0.1247,0.1244,0.1245,0.1251,0.1258,0.1255,0.1215,0.1244,0.1243,0.1243,0.1243,0.1243,0.1446,0.1445,0.1427,0.1418,0.1406,0.1395,0.1392,0.1377,0.1369,0.1355,0.1343,0.1335,0.1319,0.1301,0.1291,0.1285,0.1278,0.128,0.128,0.1281,0.1284,0.1259,0.1283,0.1283,0.1283,0.1282,0.1282,0,0.1479,0.1466,0.1457,0.1441,0.1433,0.1419,0.1405,0.14,0.1393,0.1379,0.137,0.136,0.135,0.1332,0.1321,0.132,0.1313,0.1318,0.1318,0.1316,0.1291,0.1291,0.1323,0.1323,0.1323,0.1323,0.1323,0.1323,0.1495,0.1491,0.1479,0.1469,0.1457,0.1448,0.1441,0.1431,0.142,0.1409,0.1401,0.1389,0.1373,0.1361,0.1352,0.1346,0.1344,0.1351,0.1344,0.1321,0.1317,0.1314,0.1314,0.135,0.135,0.1369,0.1369,0.1369]}]]